Location: Tehachapi Municipal Airport
(35.1300°N, 118.4400°W)
Time: 21:57:15
(UTC-08:00)

Daily predictions for brighter satellites

Satellite Brightness Start Highest point End
(mag) Time Altitude Azimuth Time Altitude Azimuth Time Altitude Azimuth
CZ-2C R/B 4.1 17:05:01 10° NNE 17:09:20 43° E 17:13:41 10° S
Cosmos 1862 Rocket 4.5 17:05:41 10° SSW 17:10:00 54° W 17:14:23 10° N
CZ-2C R/B 3.4 17:05:28 10° S 17:10:19 55° W 17:15:21 10° NNW
GPS 2-05 Rocket1 3.0 17:07:31 10° WSW 17:10:35 54° SSE 17:13:43 10° E
SJ-7 4.4 17:08:35 10° SSE 17:12:41 63° ENE 17:16:45 10° N
Cosmos 304 Rocket 3.8 17:11:08 10° NNW 17:15:57 90° ENE 17:20:44 10° SSE
Okean 1-7 3.6 17:12:09 10° SSE 17:16:11 38° E 17:20:16 10° NNE
OAO 3 Copernicus 4.5 17:17:51 10° W 17:22:56 75° SSW 17:28:00 10° ESE
Cosmos 2233 Rocket 4.3 17:17:16 10° SSW 17:23:29 73° W 17:29:43 10° N
CSL-04 Debris 4.2 17:21:54 10° SSE 17:27:19 89° ENE 17:32:46 10° NNW
Sich 1 Rocket 3.6 17:23:06 10° N 17:27:31 63° E 17:31:56 10° SSE
Cosmos 1763 Rocket 4.1 17:26:34 10° NNW 17:31:41 62° WSW 17:36:41 10° S
AQUARIUS 4.2 17:29:01 10° SSE 17:33:30 88° W 17:38:01 10° NNW
MTI 4.0 17:30:32 10° NNE 17:33:39 47° E 17:36:46 10° S
Cosmos 44 4.0 17:29:54 10° N 17:34:05 30° NE 17:38:27 10° ESE
Cosmos 1833 Rocket 2.8 17:32:50 10° N 17:38:20 52° ENE 17:43:47 10° SE
Cosmos 2369 Rocket 3.8 17:36:22 10° SE 17:38:57 13° E 17:39:26 13° E
Meteor 1-10 Rocket 4.2 17:34:26 10° S 17:40:03 70° E 17:45:48 10° NNE
USA 116 3.9 17:38:41 10° N 17:42:53 77° WNW 17:46:34 10° SSW
Cosmos 405 4.0 17:40:15 10° NNE 17:43:19 26° ENE 17:46:21 10° SE
CORIOLIS 4.2 17:37:58 10° SSE 17:43:25 85° WSW 17:48:53 10° NNW
SL-27 R/B 2.7 17:41:12 10° NNW 17:44:31 68° WSW 17:47:52 10° S
Tiangong 1 0.7 17:42:40 10° SW 17:45:14 61° SSE 17:46:16 30° E
Cosmos 2297 3.9 17:39:47 10° SSW 17:45:29 77° WNW 17:51:15 10° NNE
Cosmos 1782 Rocket 3.4 17:41:12 10° N 17:45:32 69° E 17:49:53 10° SSE
ALOS 2.9 17:43:12 10° SE 17:47:19 32° ENE 17:51:27 10° N
Cosmos 2278 Rocket 4.0 17:43:00 10° WSW 17:47:53 29° WNW 17:52:48 10° N
YAOGAN 1 2.5 17:44:01 10° SSE 17:48:18 72° ENE 17:52:38 10° N
BREEZE-M R/B 2.7 17:45:51 10° NW 17:48:41 55° NE 17:53:40 10° ESE
Meteor 1-28 Rocket 4.2 17:46:17 10° N 17:49:51 47° WNW 17:53:25 10° SSW
Cosmos 540 Rocket 3.4 17:46:55 10° NNW 17:52:05 72° ENE 17:57:12 10° SSE
COSMO-SKYMED 1 2.5 17:48:27 10° NNE 17:52:48 72° ESE 17:57:07 10° S
BREEZE-M DEB (TANK) 3.3 17:46:05 10° WNW 17:53:18 59° SW 17:56:25 10° SE
Cosmos 1513 Rocket 4.4 17:47:14 10° S 17:53:31 72° E 17:59:43 10° N
SMAP 4.0 17:49:06 10° S 17:53:35 51° W 17:58:08 10° NNW
Cosmos 1606 3.8 17:51:10 10° SSW 17:54:48 46° W 17:58:27 10° N
Cosmos 1441 Rocket 3.2 17:52:07 10° S 17:56:00 58° E 17:59:39 11° NNE
Cosmos 968 Rocket 3.6 17:51:22 10° S 17:56:21 52° ESE 18:00:45 14° NNE
Ariane Rocket 4.4 17:56:55 10° S 18:01:41 40° W 18:06:28 10° NNW
USA 234 3.2 18:01:49 19° NE 18:06:48 73° SE 18:13:18 10° SW
Cosmos 1891 Rocket 4.4 18:01:51 10° S 18:08:02 88° W 18:14:08 10° N
EO 1 Del DPAF 3.6 18:08:19 10° N 18:12:06 65° WNW 18:15:52 10° SSW
CZ-4C R/B 3.2 18:05:38 10° NNW 18:12:35 45° NE 18:18:12 18° ESE
METEOR-M 4.2 18:08:14 10° S 18:13:34 79° WSW 18:18:55 10° NNW
Meteor 1-11 Rocket 3.7 18:08:27 10° N 18:14:13 61° E 18:19:48 10° SSE
ERS-2 2.5 18:11:21 10° S 18:14:59 65° WSW 18:18:39 10° NNW
CZ-4 R/B 3.5 18:16:36 10° SSW 18:19:54 27° W 18:23:13 10° NW
Cosmos 2151 Rocket 3.6 18:16:38 10° N 18:20:58 53° E 18:25:18 10° SSE
DMSP B5D1-3 4.4 18:16:03 10° NNE 18:21:14 83° ESE 18:26:22 10° SSW
OAO 3 Rocket 3.2 18:20:21 10° WSW 18:25:16 78° SSE 18:26:33 49° E
Nadezhda 4 Rocket 3.8 18:19:33 10° N 18:25:38 66° E 18:31:42 10° SSE
Cosmos 1634 Rocket 4.3 18:20:21 10° SSE 18:26:01 40° E 18:26:53 38° ENE
Cosmos 1602 4.1 18:24:53 10° NNW 18:28:41 61° W 18:32:29 10° S
Meteor 2-20 4.3 18:23:38 10° N 18:29:45 90° E 18:35:48 10° S
Cosmos 2082 Rocket 2.9 18:25:31 10° NNW 18:31:02 55° WSW 18:36:30 10° S
Cosmos 2034 Rocket 4.3 18:24:53 10° SSW 18:31:12 68° W 18:37:32 10° N
Cosmos 405 Rocket 4.4 18:28:26 10° SW 18:31:52 32° WNW 18:35:16 10° NNW
NOSS 3-1 (C) 4.2 18:27:38 10° S 18:31:25 29° SE 18:31:25 29° SE
Okean 2 Rocket 4.0 18:29:24 10° NNW 18:33:46 50° W 18:38:07 10° SSW
Gblst 52 Del rocket 4.1 18:31:24 10° SW 18:36:56 85° SE 18:38:34 49° NE
Celestis-02/Orion 38 4.5 18:42:37 63° E 18:42:59 65° ESE 18:48:10 10° SSW
Timation 2 Rocket 3.9 18:38:05 10° NNW 18:44:49 72° ENE 18:48:30 27° SE
Cosmos 1092 Rocket 3.8 18:38:43 10° N 18:44:50 64° E 18:50:59 10° SSE
Cosmos 1674 Rocket 3.7 18:40:33 10° S 18:44:14 63° S 18:44:14 63° S
ISS -1.6 18:46:40 10° SW 18:48:04 23° SW 18:48:04 23° SW
SPOT 3 Rocket 4.5 18:46:52 10° S 18:51:53 47° W 18:56:55 10° NNW
IUS-13 SRM-1 4.4 18:51:25 10° SW 18:52:03 15° SSW 18:52:03 15° SSW
USA 229 DEB 3.7 18:48:24 10° SW 18:55:07 79° WNW 18:57:42 41° NNE
USA 229 3.7 18:48:30 10° SW 18:55:14 79° WNW 18:57:45 42° NNE
Cosmos 44 Rocket 4.2 18:51:43 10° NW 18:56:27 49° WSW 19:00:06 17° S
FengYun 1-2 T 4.0 18:51:41 10° SSE 18:57:11 82° ENE 19:02:46 10° N
MOS 1-B Rocket 4.5 18:53:35 10° SSE 19:00:43 74° ENE 19:09:07 10° N
Atlas 2A Centaur Rocket 3.5 18:50:50 10° W 19:02:00 38° SSW 19:02:43 36° S
Cosmos 2142 Rocket 4.4 18:59:24 10° S 19:05:06 70° SE 19:05:06 70° SE
Meteor 1-5 Rocket 4.4 19:04:57 10° NNW 19:10:12 64° W 19:15:25 10° S
Cosmos 2369 Rocket 2.7 19:16:42 10° SSW 19:21:18 56° WSW 19:21:18 56° WSW
Cosmos 1943 Rocket 4.2 19:40:39 10° SSW 19:42:16 20° SSW 19:42:16 20° SSW
USA 234 4.5 19:49:11 32° NNW 19:49:23 32° NNW 19:55:02 10° W
CZ-4C R/B 4.0 19:54:17 10° NW 20:01:12 40° WSW 20:03:36 33° SSW
